EDT,Max TemperatureF,Mean TemperatureF,Min TemperatureF,Max Dew PointF,MeanDew PointF,Min DewpointF,Max Humidity, Mean Humidity, Min Humidity, Max Sea Level PressureIn, Mean Sea Level PressureIn, Min Sea Level PressureIn, Max VisibilityMiles, Mean VisibilityMiles, Min VisibilityMiles, Max Wind SpeedMPH, Mean Wind SpeedMPH, Max Gust SpeedMPH,PrecipitationIn, CloudCover, Events, WindDirDegrees
2013-8-1,79,70,60,63,60,54,93,69,45,29.93,29.90,29.88,10,8,2,25,8,32,0.08,5,Rain-Thunderstorm,268
2013-8-2,77,66,54,63,58,51,93,74,54,29.93,29.89,29.84,10,10,10,18,8,25,T,3,,237
2013-8-3,80,68,55,60,55,51,93,67,40,30.07,29.99,29.92,10,10,9,15,6,21,0.00,2,,314
2013-8-4,75,65,54,54,52,49,86,66,46,30.19,30.14,30.08,10,10,10,14,7,18,0.00,2,,345
2013-8-5,72,63,53,59,53,49,89,68,47,30.13,30.07,29.97,10,10,10,14,4,17,T,5,,200
2013-8-6,79,72,64,68,62,56,90,76,62,29.97,29.92,29.88,10,9,2,17,7,25,0.12,7,Rain,180
2013-8-7,85,75,64,72,65,61,93,74,55,29.92,29.86,29.82,10,8,1,33,8,46,1.05,4,Rain-Thunderstorm,233
2013-8-8,78,71,63,65,58,52,87,65,43,30.03,29.99,29.92,10,10,10,14,6,20,0.00,4,,14
2013-8-9,82,68,54,60,56,49,93,68,42,30.01,29.98,29.94,10,9,2,17,6,21,0.00,0,,268
2013-8-10,78,68,57,58,55,51,93,66,39,30.15,30.11,30.03,10,10,10,12,4,25,0.00,2,,351
2013-8-11,80,70,60,61,57,55,90,68,45,30.13,30.10,30.05,10,10,10,14,3,18,0.00,5,,289
2013-8-12,73,68,62,66,63,58,93,83,73,30.06,29.96,29.86,10,7,0,13,4,24,0.08,7,Fog-Rain,224
2013-8-13,70,62,53,64,50,42,93,68,42,30.08,29.96,29.86,10,9,1,21,11,28,0.00,4,,328
2013-8-14,73,61,48,50,47,44,86,64,41,30.18,30.14,30.09,10,10,10,14,7,25,0.00,2,,297
2013-8-15,75,61,47,55,49,45,93,67,41,30.19,30.14,30.09,10,10,10,9,4,16,0.00,2,,225
2013-8-16,80,65,49,54,52,47,89,62,35,30.22,30.17,30.12,10,10,10,8,2,,0.00,0,,78
2013-8-17,82,66,50,57,52,45,93,62,30,30.28,30.24,30.20,10,10,9,12,3,,0.00,0,,143
2013-8-18,82,67,51,60,55,51,93,67,40,30.25,30.19,30.12,10,8,2,6,2,,0.00,0,,186
2013-8-19,84,69,53,61,55,51,93,65,37,30.13,30.10,30.04,10,8,1,13,4,17,0.00,0,,248
2013-8-20,87,72,56,65,60,55,87,64,40,30.14,30.10,30.07,10,9,6,14,5,20,0.00,0,,221
2013-8-21,90,78,66,66,64,62,87,67,46,30.12,30.07,29.99,10,9,6,15,7,22,0.00,1,,209
2013-8-22,84,76,68,67,64,59,84,68,51,30.06,30.02,29.94,10,10,7,24,8,32,T,1,Rain,281
2013-8-23,83,68,53,59,55,52,93,65,36,30.23,30.15,30.08,10,9,2,15,5,17,0.00,1,,39
2013-8-24,84,68,51,58,53,49,93,62,31,30.33,30.28,30.22,10,10,2,10,2,,0.00,0,,174
2013-8-25,89,73,57,64,60,55,90,66,42,30.29,30.22,30.14,10,10,10,16,8,24,0.00,0,,209
2013-8-26,88,79,69,70,65,61,82,68,53,30.14,30.05,29.98,10,10,8,20,8,24,T,2,,242
2013-8-27,84,78,71,75,71,68,90,82,74,30.02,29.93,29.83,10,6,1,25,5,36,1.24,5,Rain-Thunderstorm,236
2013-8-28,84,76,67,72,70,66,93,77,61,30.03,29.90,29.80,10,6,1,15,6,17,0.00,6,Rain,360
2013-8-29,88,76,63,68,64,61,93,70,46,30.10,30.06,30.00,10,4,0,10,2,12,0.00,2,Fog,337
2013-8-30,88,78,68,72,68,63,90,70,50,30.01,29.87,29.74,10,9,6,20,9,25,0.01,2,Rain,225
2013-8-31,80,73,65,70,65,61,90,73,56,29.87,29.83,29.77,10,10,8,13,7,15,0.00,7,,12